{"data":{"norad_id":87541,"intl_designator":"","name":"UNKNOWN","alt_names":[],"object_type":"UNKNOWN","status":"UNKNOWN","operator":null,"country":null,"launch_date":null,"launch_site_code":null,"launch_vehicle":null,"mission":null,"orbit_class":"UNKNOWN","rcs_meters":null,"size_class":null,"mass_kg":null,"dimensions":null,"purposes":[],"wikipedia_slug":null,"has_3d_model":false,"image_url":null,"decayed_at":null,"tle_current":{"epoch":"2026-09-16T18:52:53.180832Z","epoch_age_seconds":335161,"freshness":"STALE","line1":"1 87541U          26259.78672663  .00000080  00000+0  23814-3 0  9992","line2":"2 87541  99.6734 104.3866 0059388 310.2517 113.6971 13.35679452619150","mean_motion":13.35679452,"eccentricity":0.0059388,"inclination_deg":99.6734,"raan_deg":104.3866,"arg_perigee_deg":310.2517,"mean_anomaly_deg":113.6971,"bstar":0.00023814,"rev_number":61915,"period_min":107.81029818523,"perigee_km":1080.8548778027,"apogee_km":1169.9790906054,"semimajor_km":7503.553984204,"source":"CELESTRAK","updated_at":"2026-09-20T09:00:32.475669Z"}}}